Terug naar catalogus

STARLINK-37319

ActiefCommunicatieVLEO
NORAD 68706·PAYLOAD·🇺🇸 United States

Gelanceerd Apr 14, 2026 vanaf Cape Canaveral Space Force Station

Loading…

Volgende Passages (komende 24 uur)

TLE

VersSource: CelesTrak SupGP

Epoch: Sep 15, 2026, 03:19 UTC

1 68706C 26081H   26258.13868056 -.00048075  00000+0 -14203-2 0  2589
2 68706  53.1578 230.9373 0001333  86.1343 268.1191 15.34416202    17

Volg STARLINK-37319 in realtime met AllMySat

Download on the App Store